Maple Lake, MN

6:54 AM CDT on March 27, 2017 (GMT -0500)
Maple Lake Municipal

Weather History for KMGG - July, 2013

Change the Weather History Date:

Thursday, July 18, 2013

  Actual Average (KSTC) Record (KSTC)
Temperature  
Mean Temperature 84 °F -  
Max Temperature 93 °F 83 °F 103 °F (1940)
Min Temperature 74 °F 59 °F 45 °F (1979)
Cooling Degree Days 18    
Growing Degree Days 34 (Base 50)    
Moisture  
Dew Point 71 °F    
Average Humidity 67    
Maximum Humidity 89    
Minimum Humidity 44    
Precipitation  
Precipitation 0.00 in - - ()
Sea Level Pressure  
Sea Level Pressure 29.94 in    
Wind  
Wind Speed 6 mph (SSW)    
Max Wind Speed 16 mph    
Max Gust Speed 26 mph    
Visibility 10 miles    
Events      
Averages and records for this station are not official NWS values.
T = Trace of Precipitation, MM = Missing Value Source: NWS Daily Summary

Daily Weather History Graph

Daily Weather History Graph

Search for Another Location

Airport or City:

Trip Planner

Search our weather history database for the weather conditions in past years. The results will help you decide how hot, cold, wet, or windy it might be!

Date:

Astronomy

Jul. 18, 2013 Rise Set
Actual Time 5:45 AM CDT 8:58 PM CDT
Civil Twilight 5:10 AM CDT 9:33 PM CDT
Nautical Twilight 4:23 AM CDT 10:19 PM CDT
Astronomical Twilight 3:26 AM CDT 11:16 PM CDT
Moon 4:54 PM CDT (7/18) 1:39 AM CDT (7/18)
Length of Visible Light 16h 23m
Length of Day
15h 12m
Waxing Gibbous, 77% of the Moon is Illuminated
Jul 18
Waxing Gibbous
Jul 22
Full
Jul 29
Last Quarter
Aug 6
New
Aug 14
First Quarter

Hourly Weather History & Observations

Time (CDT) Temp. Heat Index Dew Point Humidity Pressure Visibility Wind Dir Wind Speed Gust Speed Precip Events Conditions
12:16 AM 77.9 °F - 74.3 °F 89% 30.12 in 10.0 mi Calm Calm - N/A   Clear
12:36 AM 78.1 °F - 74.3 °F 88% 30.11 in 10.0 mi South 3.5 mph - N/A   Clear
12:56 AM 78.1 °F - 74.3 °F 88% 30.11 in 10.0 mi Calm Calm - N/A   Clear
1:16 AM 78.3 °F - 73.8 °F 86% 30.11 in 10.0 mi South 4.6 mph - N/A   Clear
1:36 AM 77.9 °F - 73.6 °F 86% 30.11 in 10.0 mi South 3.5 mph - N/A   Clear
1:57 AM 77.5 °F - 73.4 °F 87% 30.10 in 10.0 mi South 4.6 mph - N/A   Clear
2:16 AM 77.4 °F - 72.7 °F 85% 30.10 in 10.0 mi South 4.6 mph - N/A   Clear
2:36 AM 77.0 °F - 72.5 °F 86% 30.10 in 10.0 mi South 3.5 mph - N/A   Clear
2:56 AM 76.5 °F - 72.1 °F 86% 30.10 in 10.0 mi South 4.6 mph - N/A   Clear
3:16 AM 76.1 °F - 71.8 °F 86% 30.10 in 10.0 mi South 3.5 mph - N/A   Clear
3:36 AM 76.1 °F - 71.6 °F 86% 30.09 in 10.0 mi South 3.5 mph - N/A   Clear
3:56 AM 75.4 °F - 71.2 °F 87% 30.08 in 10.0 mi South 3.5 mph - N/A   Clear
4:16 AM 75.6 °F - 71.1 °F 86% 30.07 in 10.0 mi South 4.6 mph - N/A   Clear
4:36 AM 75.6 °F - 71.1 °F 86% 30.07 in 10.0 mi South 4.6 mph - N/A   Clear
4:56 AM 75.6 °F - 70.7 °F 85% 30.07 in 10.0 mi South 4.6 mph - N/A   Clear
5:16 AM 75.2 °F - 70.3 °F 85% 30.06 in 10.0 mi South 3.5 mph - N/A   Clear
5:36 AM 74.7 °F - 70.3 °F 86% 30.05 in 10.0 mi South 4.6 mph - N/A   Clear
5:57 AM 74.5 °F - 70.3 °F 87% 30.05 in 10.0 mi SSW 3.5 mph - N/A   Clear
6:16 AM 74.7 °F - 70.3 °F 86% 30.05 in 10.0 mi South 4.6 mph - N/A   Clear
6:36 AM 75.2 °F - 70.7 °F 86% 30.05 in 10.0 mi South 4.6 mph - N/A   Scattered Clouds
6:57 AM 75.4 °F - 70.9 °F 86% 30.05 in 10.0 mi South 4.6 mph - N/A   Mostly Cloudy
7:16 AM 75.2 °F - 70.9 °F 86% 30.04 in 10.0 mi South 4.6 mph - N/A   Mostly Cloudy
7:36 AM 76.6 °F - 71.6 °F 84% 30.03 in 10.0 mi Calm Calm - N/A   Scattered Clouds
7:57 AM 78.1 °F - 72.1 °F 82% 30.03 in 10.0 mi South 5.8 mph - N/A   Clear
8:16 AM 79.2 °F - 72.3 °F 79% 30.02 in 10.0 mi SSW 3.5 mph - N/A   Scattered Clouds
8:36 AM 80.6 °F 85.0 °F 72.7 °F 77% 30.02 in 10.0 mi SSW 5.8 mph - N/A   Scattered Clouds
8:56 AM 81.9 °F 86.8 °F 72.5 °F 73% 30.01 in 10.0 mi SSW 8.1 mph - N/A   Clear
9:17 AM 83.7 °F 89.2 °F 72.1 °F 68% 30.01 in 10.0 mi SSW 8.1 mph 17.3 mph N/A   Clear
9:36 AM 84.6 °F 90.0 °F 71.8 °F 65% 30.00 in 10.0 mi SSW 6.9 mph - N/A   Clear
9:56 AM 85.3 °F 91.5 °F 72.1 °F 65% 29.99 in 10.0 mi SW 6.9 mph 16.1 mph N/A   Clear
10:16 AM 86.2 °F 92.6 °F 72.1 °F 63% 29.99 in 10.0 mi SW 8.1 mph - N/A   Clear
10:36 AM 86.9 °F 93.3 °F 71.8 °F 61% 29.98 in 10.0 mi SSW 10.4 mph 16.1 mph N/A   Clear
10:56 AM 87.8 °F 94.7 °F 72.1 °F 60% 29.97 in 10.0 mi SW 9.2 mph 16.1 mph N/A   Clear
11:16 AM 88.3 °F 95.0 °F 72.0 °F 58% 29.97 in 10.0 mi SW 9.2 mph 16.1 mph N/A   Clear
11:36 AM 89.1 °F 95.0 °F 71.2 °F 55% 29.96 in 10.0 mi SSW 11.5 mph 21.9 mph N/A   Clear
11:56 AM 89.6 °F 96.2 °F 71.2 °F 55% 29.95 in 10.0 mi SW 12.7 mph 20.7 mph N/A   Clear
12:16 PM 89.6 °F 96.2 °F 71.4 °F 55% 29.95 in 10.0 mi SW 9.2 mph 20.7 mph N/A   Clear
12:36 PM 90.3 °F 97.2 °F 71.4 °F 54% 29.95 in 10.0 mi SW 13.8 mph 20.7 mph N/A   Clear
12:56 PM 90.9 °F 97.3 °F 71.2 °F 52% 29.94 in 10.0 mi SW 11.5 mph 19.6 mph N/A   Clear
1:16 PM 90.9 °F 96.2 °F 70.2 °F 50% 29.93 in 10.0 mi SSW 12.7 mph 23.0 mph N/A   Clear
1:36 PM 91.4 °F 96.3 °F 69.3 °F 48% 29.93 in 10.0 mi SW 12.7 mph 24.2 mph N/A   Clear
1:56 PM 91.6 °F 96.2 °F 68.9 °F 47% 29.92 in 10.0 mi SSW 15.0 mph 21.9 mph N/A   Clear
2:16 PM 92.3 °F 97.6 °F 69.3 °F 47% 29.91 in 10.0 mi South 11.5 mph 19.6 mph N/A   Clear
2:36 PM 92.5 °F 96.9 °F 68.5 °F 45% 29.90 in 10.0 mi SSW 12.7 mph 23.0 mph N/A   Clear
2:56 PM 92.3 °F 96.1 °F 67.5 °F 44% 29.89 in 10.0 mi SW 15.0 mph 26.5 mph N/A   Clear
3:16 PM 92.8 °F 97.6 °F 68.7 °F 45% 29.89 in 10.0 mi SW 15.0 mph 24.2 mph N/A   Clear
3:36 PM 92.7 °F 97.7 °F 68.9 °F 46% 29.88 in 10.0 mi SSW 12.7 mph 21.9 mph N/A   Clear
3:56 PM 93.0 °F 97.4 °F 68.2 °F 44% 29.87 in 10.0 mi SW 16.1 mph 24.2 mph N/A   Clear
4:16 PM 92.7 °F 97.2 °F 68.7 °F 45% 29.86 in 10.0 mi SSW 13.8 mph 21.9 mph N/A   Clear
4:36 PM 92.8 °F 97.6 °F 68.5 °F 45% 29.85 in 10.0 mi SW 10.4 mph 21.9 mph N/A   Clear
4:56 PM 92.8 °F 97.6 °F 68.4 °F 45% 29.85 in 10.0 mi SW 12.7 mph 21.9 mph N/A   Clear
5:16 PM 92.7 °F 98.3 °F 69.8 °F 47% 29.84 in 10.0 mi SSW 8.1 mph 20.7 mph N/A   Clear
5:36 PM 92.3 °F 97.0 °F 68.9 °F 46% 29.83 in 10.0 mi SW 11.5 mph 26.5 mph N/A   Clear
5:56 PM 91.6 °F 97.2 °F 70.2 °F 49% 29.83 in 10.0 mi SW 11.5 mph 21.9 mph N/A   Clear
6:16 PM 91.4 °F 96.8 °F 70.0 °F 49% 29.82 in 10.0 mi SW 11.5 mph 21.9 mph N/A   Clear
6:36 PM 91.0 °F 97.1 °F 70.5 °F 51% 29.81 in 10.0 mi SSW 11.5 mph 18.4 mph N/A   Clear
6:56 PM 90.5 °F 96.5 °F 70.7 °F 52% 29.81 in 10.0 mi SW 9.2 mph 18.4 mph N/A   Clear
7:16 PM 90.0 °F 95.9 °F 70.7 °F 53% 29.81 in 10.0 mi SSW 10.4 mph 19.6 mph N/A   Clear
7:36 PM 89.4 °F 95.3 °F 70.9 °F 54% 29.80 in 10.0 mi SW 8.1 mph 17.3 mph N/A   Clear
7:57 PM 88.7 °F 94.3 °F 70.9 °F 55% 29.80 in 10.0 mi SW 6.9 mph - N/A   Clear
8:16 PM 87.1 °F 92.4 °F 70.7 °F 58% 29.80 in 10.0 mi SW 6.9 mph - N/A   Clear
8:36 PM 86.4 °F 91.8 °F 70.9 °F 60% 29.79 in 10.0 mi SSW 4.6 mph - N/A   Clear
8:57 PM 85.5 °F 90.8 °F 70.9 °F 62% 29.78 in 10.0 mi SSW 5.8 mph - N/A   Clear
9:16 PM 85.1 °F 90.1 °F 70.9 °F 62% 29.78 in 10.0 mi SSW 4.6 mph - N/A   Clear
9:36 PM 84.6 °F 89.4 °F 70.9 °F 63% 29.78 in 10.0 mi SSW 4.6 mph - N/A   Clear
9:57 PM 83.5 °F 88.2 °F 71.1 °F 66% 29.78 in 5.0 mi SSW 4.6 mph - N/A   Haze
10:16 PM 82.9 °F 87.5 °F 70.9 °F 67% 29.78 in 7.0 mi SSW 5.8 mph - N/A   Clear
10:36 PM 82.4 °F 86.7 °F 71.1 °F 68% 29.78 in 10.0 mi South 4.6 mph - N/A   Clear
10:56 PM 81.9 °F 86.2 °F 71.1 °F 70% 29.77 in 10.0 mi South 5.8 mph - N/A   Clear
11:16 PM 81.5 °F 85.5 °F 71.1 °F 70% 29.77 in 10.0 mi South 4.6 mph - N/A   Scattered Clouds
11:36 PM 81.5 °F 85.7 °F 71.2 °F 71% 29.77 in 10.0 mi SSW 4.6 mph - N/A   Scattered Clouds
11:56 PM 81.1 °F 85.0 °F 71.1 °F 71% 29.77 in 10.0 mi South 4.6 mph - N/A   Scattered Clouds